Flag for U.S.A. Weather past 2 weeks in Lakewood, Colorado, U.S.A.

Now
63 °F

Passing clouds.


Feels Like: 63 °F
Forecast: 57 / 83 °F
Wind: 6 mph from South

Location: Centennial Airport

Current Time: Aug 28, 2015 at 12:16:45 AM

Latest Report: Aug 27, 2015 at 11:53 PM


Visibility: 10 mi

Pressure: 29.99 "Hg (24.60 "Hg at 1683m altitude)

Humidity: 75%

Dew point: 55 °F

Location of LakewoodLocation

Historic Weather in Lakewood — Graph

°F

Lakewood temperature yesterday

Maximum temperature yesterday: 82 °F (at 2:53 PM)
Minimum temperature yesterday: 62 °F (at 4:53 AM)
Average temperature yesterday: 71 °F

Past Weeks' High & Low Weather Summary

 TemperatureHumidityPressure
High95 °F (Aug 15, 3:53 PM)93% (Aug 18, 12:53 AM)30.21 "Hg (Aug 18, 12:53 AM)
Low48 °F (Aug 23, 5:53 AM)12% (Aug 21, 2:53 PM)29.68 "Hg (Aug 21, 4:53 PM)
Average70 °F47%29.97 "Hg
* Reported Aug 12 10:53 PM — Aug 27 10:53 PM, Lakewood, Weather by CustomWeather, © 2015

Note: Actual official high and low records may vary slightly from our data, if they occured in-between our weather recording intervals... More about our weather records

Advertising

Lakewood weather history for previous 24 hours

 ConditionsComfort  
Time TempWeatherWind HumidityBarometerVisibility
10:53 PM
Thu, Aug 27
65 °FPassing clouds.9 mph70%30.00 "Hg10 mi
9:53 PM63 °FPassing clouds.5 mph78%30.03 "Hg10 mi
8:53 PM64 °FPassing clouds.7 mph78%30.01 "Hg10 mi
7:53 PM67 °FBroken clouds.5 mph76%30.00 "Hg10 mi
6:53 PM73 °FScattered clouds.5 mph53%29.96 "Hg10 mi
5:53 PM68 °FBroken clouds.13 mph68%30.00 "Hg10 mi
4:53 PM71 °FBroken clouds.20 mph76%29.99 "Hg10 mi
3:53 PM79 °FLight rain. Broken clouds.15 mph36%29.93 "Hg10 mi
2:53 PM82 °FBroken clouds.14 mph31%29.92 "Hg10 mi
1:53 PM80 °FPartly sunny.9 mph32%29.93 "Hg10 mi
12:53 PM80 °FPartly sunny.7 mph32%29.93 "Hg10 mi
11:53 AM81 °FPartly sunny.8 mph34%29.95 "Hg10 mi
10:53 AM78 °FBroken clouds.8 mph39%29.96 "Hg10 mi
9:53 AM75 °FBroken clouds.3 mph40%29.96 "Hg10 mi
8:53 AM73 °FBroken clouds.5 mph41%29.95 "Hg10 mi
7:53 AM70 °FPartly sunny.7 mph44%29.95 "Hg10 mi
6:53 AM68 °FPartly cloudy.7 mph45%29.95 "Hg10 mi
5:53 AM65 °FPartly cloudy.6 mph51%29.93 "Hg10 mi
4:53 AM62 °FPassing clouds.6 mph54%29.93 "Hg10 mi
3:53 AM65 °FPassing clouds.7 mph47%29.91 "Hg10 mi
2:53 AM64 °FPassing clouds.9 mph49%29.89 "Hg10 mi
1:53 AM64 °FPassing clouds.5 mph47%29.89 "Hg10 mi
12:53 AM68 °FPassing clouds.5 mph42%29.89 "Hg10 mi
Weather by CustomWeather, © 2015

See weather overviewHow to use our weather pages